Location: Napier
(39.4830°S, 176.9170°E)
Time: 02:59:19
(UTC+12:00)

Lacrosse 4 Rocket - Pass Details

Date: 15 August 2020
Orbit: 544 x 615 km, 68.0° (Epoch: 20 September)

Event Time Altitude Azimuth Distance (km) Brightness Sun altitude
Rises 20:15:50 0° 219° (SW) 2,915 5.6 -31.6°
Reaches altitude 10° 20:18:22 10° 231° (SW) 2,003 4.8 -32.1°
Enters shadow 20:21:47 27° 279° (W) 1,209 3.5 -32.8°
